Lid_Strength_Index
7 7 6 7 6 6 7 8 9 9 8 9 9 10 10 10 10 9 10 10 9 9 9 9 9 8 8 8 8 8 8 8 11 9 8 8 10 11 10 9 8 10 10
7 7 7 7 7 8 9 9 9 9 9 10 10 11 11 11 10 10 10 10 10 10 9 9 9 9 9 9 9 9 8 8 9 11 10 11 12 12 11 11 9 10 11
7 8 8 8 9 10 11 11 11 10 11 11 11 12 12 11 11 10 10 10 10 10 10 10 10 10 10 9 9 9 9 9 9 11 12 11 12 13 13 11 10 12 12
7 8 8 9 10 11 11 11 11 11 11 12 12 12 12 12 10 10 10 10 11 11 11 11 12 12 12 10 10 10 10 10 10 11 12 13 13 13 13 14 12 12 14
7 8 9 10 11 11 12 12 12 11 12 12 12 12 12 11 11 11 10 11 11 12 12 13 13 13 13 13 12 12 11 11 12 12 13 14 15 15 15 14 13 12 16
8 9 10 11 12 12 12 13 13 12 12 12 12 13 13 13 14 13 11 12 12 12 12 12 12 13 14 14 14 14 14 13 13 13 14 15 16 16 14 14 13 15 16
9 10 10 12 12 13 14 14 14 13 12 13 13 12 14 14 14 13 11 12 12 12 12 12 13 13 12 13 14 14 15 14 15 13 15 16 16 16 16 14 13 12 16
11 12 12 13 13 14 14 14 13 12 12 12 11 12 13 14 14 13 12 12 13 13 13 12 13 14 14 13 13 14 15 16 15 15 15 15 15 15 14 14 13 12 11
13 14 14 14 15 15 14 13 13 13 13 13 12 13 14 15 14 14 12 13 13 13 13 13 14 15 16 14 14 15 15 15 15 16 15 15 15 15 14 14 15 15 15
14 14 14 13 13 14 14 13 13 13 13 13 13 13 14 15 14 13 12 12 13 13 14 15 15 15 16 15 14 15 17 17 15 14 14 14 14 14 15 15 16 16 16
13 13 13 13 14 14 14 13 13 13 13 13 14 14 14 14 14 14 13 11 11 12 12 14 15 16 16 15 16 16 17 14 14 14 14 14 14 14 14 15 15 16 18
12 12 13 14 14 14 13 13 13 13 13 14 14 14 13 13 14 14 13 12 11 11 13 14 15 16 16 16 16 16 16 14 13 14 14 15 15 15 14 14 14 14 15
12 14 14 14 13 13 13 13 13 13 13 13 13 13 13 13 14 14 14 14 13 12 13 15 16 17 16 16 16 16 14 14 14 14 15 15 14 14 13 13 13 13 13
13 14 14 14 14 14 13 12 13 12 12 12 12 12 13 13 14 14 14 14 15 16 17 16 17 17 17 16 14 14 15 15 14 14 14 14 13 13 14 14 14 14 14
12 13 13 14 14 13 12 12 12 11 11 11 10 11 12 13 12 13 13 13 13 14 16 16 15 14 14 14 15 15 14 14 14 14 14 14 14 15 14 14 15 14 15
11 12 13 12 13 12 12 13 12 12 12 11 11 9 10 10 12 13 14 14 16 16 15 15 15 14 14 14 14 15 15 16 15 15 15 15 15 15 16 15 15 15 16
10 11 12 12 12 12 12 13 14 13 12 12 12 12 12 13 13 14 15 16 16 17 14 14 14 14 14 14 15 15 15 16 16 16 16 16 16 16 16 16 16 16 17
9 11 11 11 10 10 10 11 12 13 14 14 13 13 13 14 14 14 15 16 17 17 14 14 14 14 15 15 15 16 16 16 16 16 16 17 17 16 16 17 16 18 18
9 10 9 9 9 10 10 10 11 12 13 13 13 13 13 13 14 14 15 14 15 15 15 15 14 15 15 15 15 16 16 16 17 16 16 17 17 17 17 17 17 18 18
9 9 9 9 10 10 10 12 12 12 12 13 13 13 13 13 14 15 15 13 14 14 15 15 15 15 15 15 15 15 15 16 16 16 16 17 17 17 17 17 17 18 17
9 9 10 10 10 11 11 11 12 12 12 12 12 11 12 13 14 14 14 14 14 14 14 15 15 15 15 15 15 15 16 15 16 17 17 17 17 18 17 17 17 17 17
9 9 10 10 10 10 11 11 11 11 12 12 12 12 13 13 13 13 13 14 13 13 13 14 15 14 14 15 15 15 16 17 16 17 17 18 18 17 17 17 17 17 17
9 9 10 10 10 10 10 11 11 12 12 12 12 13 13 13 12 13 13 13 13 14 14 14 14 15 15 15 15 15 16 16 16 17 18 18 18 17 17 17 17 18 17
9 9 9 9 10 10 11 11 11 12 12 12 11 13 13 13 12 12 12 13 13 14 14 15 15 15 15 16 16 16 16 16 16 17 19 19 19 18 17 18 18 18 18
8 9 9 10 10 10 10 10 10 11 11 11 11 12 12 12 12 12 12 13 14 15 15 16 16 16 17 18 17 17 19 20 21 23 20 19 19 19 19 18 18 18 18
9 9 9 9 9 9 9 9 9 10 11 11 11 11 12 12 12 12 13 14 15 15 16 16 16 17 17 18 18 19 20 22 22 22 21 19 18 18 17 18 18 18 18